Powrót do katalogu

THOR ABLESTAR DEB

AktywnyLEO
NORAD 152·DEBRIS·🇺🇸 United States

Wystrzelony Jun 29, 1961 z Cape Canaveral Space Force Station

Loading…

Następne Przeloty (najbliższe 24 godziny)

TLE

ŚwieżeSource: Space-Track

Epoka: Sep 9, 2026, 07:10 UTC

1 00152U 61015AN  26252.29883039 -.00000093  00000-0 -53286-5 0  9993
2 00152  66.5926 105.0020 0145502 141.5291 219.6279 14.11583716337952

Śledź THOR ABLESTAR DEB w czasie rzeczywistym z AllMySat

Download on the App Store